全球星 M040星 (GLOBALSTAR M040)

导读 | 豆包AI

GLOBALSTAR M040是美国全球星系统的第一代低轨移动通信卫星,于1999年2月9日发射升空,归属全球星(GLOB)系统运营。作为全球星星座组网成员,它运行在约1414千米高度的近地轨道,采用三轴稳定设计,配备16个点波束与透明转发器,可提供数字语音、数据、短信息及漫游通信服务,是全球星实现中低纬度区域无缝移动通信覆盖的重要组成部分。

基本信息
目录编号:
25622
目录名称:
GLOBALSTAR M040
国际标识:
1999-004B
轨道中心:
EARTH
卫星名称:
全球星 M040星
卫星全名:
全球星 M040星 (GLOBALSTAR M040)
卫星状态:
在轨 (已飞行9894 天)
发射日期:
1999-02-09 UTC
国别 :
(GLOB)
星等 :
--
轨道信息
数据来源 国际轨道数据 AOE轨道数据
星历时间 2026-03-13T09:47:37+0800
22小时前
查看轨道信息
2026-03-13T16:00:00+0800
15小时前
查看轨道信息
半长轴 7792.716km 7792.731km
偏心率 0.0000111 0.0000587
轨道倾角 51.993° 51.994°
近地点辐角 300.068° 32.118°
升交点赤经 319.215° 318.428°
平近点角 207.453° 210.855°
近地点 1414.492km 1414.136km
远地点 1414.666km 1415.052km
周期 114.102分钟 114.102分钟
每日圈数 12.620296 12.620259
详细信息
固有亮度:
5
最大亮度:
7.9
平衡模式:
三轴稳定
覆盖范围:
全球
运营商:
全球星公司
运营商所在国:
美国
使用方式:
暂无
卫星简介
全球星星座由48颗卫星加8颗备份星组成。这些卫星分布在8个倾角为52度的圆形轨道平面上,每个轨道平面6颗卫星,另有1 颗备用星。轨道高度约为1414km,传输时延和处理时延小于300ms,整个系统的覆盖区为南北纬70度以内的地区。该卫星仍在工作。
2D轨道图
3D轨道图
轨道高度分析图
轨道倾角分析图
轨道综合分析图
查看轨道综合分析图